Regional Weather Roundup
Issued by NWS

Home | Current Version | Previous Version | Text Only | Print | Product List | Glossary Off
Versions: 1 2 3 4 5 6 7 8 9 10 11 12 13 14 15 16 17 18 19 20 21 22 23 24 25 26 27 28 29 30 31 32 33 34 35 36 37 38 39 40 41 42 43 44 45 46 47 48 49 50

000
ASUS44 KMEG 171210
RWRTN
TENNESSEE HOURLY STATE WEATHER ROUNDUP
NATIONAL WEATHER SERVICE MEMPHIS TN
700 AM CDT TUE OCT 17 2017

TNZ002-004-019-021-049-052-054-088>092-171300-
WEST TENNESSEE

CITY           SKY/WX    TMP DP  RH WIND       PRES   REMARKS
MEMPHIS INTL   PTCLDY    47  41  80 N3        30.33R
NWS MEMPHIS      N/A     42 N/A N/A MISG        N/A
JACKSON        CLEAR     39  37  92 CALM      30.34R
COVINGTON      CLEAR     37  36  93 NW5       30.35R WCI  34
UNION CITY     FOG       37  36  93 CALM      30.36R VSB 1
BOLIVAR        CLEAR     37  36  93 CALM      30.31S
PARIS          CLEAR     39  39 100 NE3       30.34R FOG
HUNTINGDON     CLEAR     37  37 100 CALM      30.34R
LEXINGTON      CLEAR     37  37 100 CALM      30.33S
SELMER         CLEAR     37  37 100 CALM      30.32S
SAVANNAH       CLEAR     36  36 100 CALM      30.32F
$$

TNZ008-025-027-028-033-062-065-066-171300-
NORTH MIDDLE TENNESSEE

CITY           SKY/WX    TMP DP  RH WIND       PRES   REMARKS
NASHVILLE      CLEAR     42  39  89 CALM      30.35R
PORTLAND       CLEAR     39  39 100 CALM      30.35R FOG
CLARKSVILLE    CLEAR     39  36  89 CALM      30.36R
SMYRNA         CLEAR     39  39 100 CALM      30.36R
COOKEVILLE     CLEAR     36  36 100 CALM      30.33S FOG
GALLATIN       CLEAR     39  37  93 CALM      30.38R
CROSSVILLE     CLEAR     37  36  96 CALM      30.34R
$$

TNZ061-075-076-078-094-096-097-171300-
SOUTH MIDDLE TENNESSEE

CITY           SKY/WX    TMP DP  RH WIND       PRES   REMARKS
FAYETTEVILLE   CLEAR     43  41  93 NE5       30.31S
TULLAHOMA        N/A     39  36  87 CALM      30.33R
WINCHESTER     CLEAR     37  37 100 CALM        N/A
COLUMBIA       FOG       37  37 100 CALM      30.33R VSB 3/4
SHELBYVILLE    CLEAR     37  37 100 CALM      30.34R
$$

TNZ017-018-042-046-047-171300-
NORTHEAST TENNESSEE

CITY           SKY/WX    TMP DP  RH WIND       PRES   REMARKS
TRI CITIES     FOG       36  36 100 CALM      30.36S VSB 1
ELIZABETHTON   CLEAR     37  37 100 CALM      30.37R
$$

TNZ012-013-036-069-073-074-171300-
CENTRAL EAST TENNESSEE

CITY           SKY/WX    TMP DP  RH WIND       PRES   REMARKS
KNOXVILLE      CLEAR     43  42  97 NE3       30.34R
DOWNTOWN KNOXV FOG       43  43 100 CALM      30.36R VSB 1/4
GATLINBURG     CLEAR     39  37  93 CALM      30.35R
MORRISTOWN     CLEAR     41  39  93 SE3       30.34S
JACKSBORO      CLOUDY    37  37 100 CALM      30.39S
$$

TNZ083-085-099-171300-
SOUTHEAST TENNESSEE

CITY           SKY/WX    TMP DP  RH WIND       PRES   REMARKS
CHATTANOOGA    CLEAR     46  42  86 CALM      30.34R
DAYTON         SUNNY     41  41 100 CALM      30.34R
$$

SKY/WX REPORTED AS FAIR MEANS FEW OR NO CLOUDS BELOW
12 THOUSAND FEET.




USA.gov is the U.S. government's official web portal to all federal, state and local government web resources and services.